Overview Statistics Trail Chart Weather Telemetry Raw packets
 

This is the latest recevied weather packets stored in our database for station/object YO3FVR-WX. If no packets are shown the sender has not sent any weather packets the latest 10 day(s).

<< 44 45 46 47 48 49 50 >>
Time Temp. Humidity Pressure Rain* Wind** Luminosity Snow
1787935532 24.44° C 46% 1015.9 hPa 0 mm - - -
1787934902 24.44° C 46% 1015.7 hPa 0 mm - - -
1787934272 25° C 45% 1015.6 hPa 0 mm - - -
1787933642 25° C 45% 1015.6 hPa 0 mm - - -
1787933012 25° C 45% 1015.5 hPa 0 mm - - -
1787932382 25° C 44% 1015.8 hPa 0 mm - - -
1787931782 25.56° C 45% 1015.7 hPa 0 mm - - -
1787931182 25.56° C 45% 1015.8 hPa 0 mm - - -
1787930552 25.56° C 45% 1015.7 hPa 0 mm - - -
1787929952 25.56° C 44% 1015.8 hPa 0 mm - - -
1787929352 25.56° C 44% 1015.7 hPa 0 mm - - -
1787928722 26.11° C 44% 1015.6 hPa 0 mm - - -
1787928122 26.11° C 44% 1015.7 hPa 0 mm - - -
1787927522 25.56° C 44% 1015.6 hPa 0 mm - - -
1787926892 25.56° C 44% 1015.7 hPa 0 mm - - -
1787926262 25.56° C 44% 1015.8 hPa 0 mm - - -
1787925632 25.56° C 44% 1015.9 hPa 0 mm - - -
1787925002 25.56° C 44% 1016.1 hPa 0 mm - - -
1787924372 25.56° C 44% 1016 hPa 0 mm - - -
1787923742 25.56° C 44% 1015.9 hPa 0 mm - - -
1787923113 25.56° C 44% 1016 hPa 0 mm - - -
1787922482 26.11° C 42% 1016 hPa 0 mm - - -
1787921852 27.78° C 41% 1016.1 hPa 0 mm - - -
1787921222 26.67° C 46% 1016.1 hPa 0 mm - - -
1787920592 25° C 46% 1016.2 hPa 0 mm - - -

* Rain latest hour (hover to see other rain measurements)
** Current wind speed in m/s (hover to see current wind gust speed)